Voltar ao catálogo

STARLINK-33876

AtivoComunicaçõesVLEO
NORAD 63639·PAYLOAD·🇺🇸 United States

Lançado Apr 25, 2025 de Cape Canaveral Space Force Station

Loading…

Próximas Passagens (próximas 24 horas)

TLE

AtualizadoSource: CelesTrak SupGP

Época: Sep 15, 2026, 02:41 UTC

1 63639C 25083F   26258.11229167  .00006108  00000+0  22118-3 0  2586
2 63639  43.0028  15.4671 0001538 264.0265 191.2957 15.27581608    10

Acompanhe STARLINK-33876 em tempo real com AllMySat

Download on the App Store